owner,sensor,date,latitude,longitude,vertical_datum,sea_water_temperature,qcFlag 
TABS,ioos:station:wmo:42047:1,2016-04-01T00:00:00Z,27.8966,-93.5973,-2.0,22.63,11111222 
TABS,ioos:station:wmo:42047:1,2016-04-01T00:30:00Z,27.8966,-93.5973,-2.0,22.63,11111222 
TABS,ioos:station:wmo:42047:1,2016-04-01T01:00:00Z,27.8966,-93.5973,-2.0,22.63,11111222 
TABS,ioos:station:wmo:42047:1,2016-04-01T01:30:00Z,27.8966,-93.5973,-2.0,22.64,11111222 
TABS,ioos:station:wmo:42047:1,2016-04-01T02:00:00Z,27.8966,-93.5973,-2.0,22.69,11111222 
TABS,ioos:station:wmo:42047:1,2016-04-01T02:30:00Z,27.8966,-93.5973,-2.0,22.74,11111222 
TABS,ioos:station:wmo:42047:1,2016-04-01T03:00:00Z,27.8966,-93.5973,-2.0,22.88,11111222 
TABS,ioos:station:wmo:42047:1,2016-04-01T03:30:00Z,27.8966,-93.5973,-2.0,22.82,11111222 
TABS,ioos:station:wmo:42047:1,2016-04-01T04:00:00Z,27.8966,-93.5973,-2.0,22.75,11111222 
TABS,ioos:station:wmo:42047:1,2016-04-01T04:30:00Z,27.8966,-93.5973,-2.0,22.82,11111222 
TABS,ioos:station:wmo:42047:1,2016-04-01T05:00:00Z,27.8966,-93.5973,-2.0,22.78,11111222 
TABS,ioos:station:wmo:42047:1,2016-04-01T05:30:00Z,27.8966,-93.5973,-2.0,22.84,11111222 
TABS,ioos:station:wmo:42047:1,2016-04-01T06:00:00Z,27.8966,-93.5973,-2.0,22.8,11111222 
TABS,ioos:station:wmo:42047:1,2016-04-01T06:30:00Z,27.8966,-93.5973,-2.0,22.81,11111222 
TABS,ioos:station:wmo:42047:1,2016-04-01T07:00:00Z,27.8966,-93.5973,-2.0,22.82,11111222 
TABS,ioos:station:wmo:42047:1,2016-04-01T07:30:00Z,27.8966,-93.5973,-2.0,22.85,11111222 
TABS,ioos:station:wmo:42047:1,2016-04-01T08:00:00Z,27.8966,-93.5973,-2.0,22.84,11111222 
TABS,ioos:station:wmo:42047:1,2016-04-01T08:30:00Z,27.8966,-93.5973,-2.0,22.84,11111222 
TABS,ioos:station:wmo:42047:1,2016-04-01T09:00:00Z,27.8966,-93.5973,-2.0,22.85,11111222 
TABS,ioos:station:wmo:42047:1,2016-04-01T09:30:00Z,27.8966,-93.5973,-2.0,22.84,11111222 
TABS,ioos:station:wmo:42047:1,2016-04-01T10:00:00Z,27.8966,-93.5973,-2.0,22.85,11111222 
TABS,ioos:station:wmo:42047:1,2016-04-01T10:30:00Z,27.8966,-93.5973,-2.0,22.83,11111222 
TABS,ioos:station:wmo:42047:1,2016-04-01T11:00:00Z,27.8966,-93.5973,-2.0,22.83,11111222 
TABS,ioos:station:wmo:42047:1,2016-04-01T11:30:00Z,27.8966,-93.5973,-2.0,22.84,11111222 
TABS,ioos:station:wmo:42047:1,2016-04-01T12:00:00Z,27.8966,-93.5973,-2.0,22.85,11111222 
TABS,ioos:station:wmo:42047:1,2016-04-01T12:30:00Z,27.8966,-93.5973,-2.0,22.87,11111222 
TABS,ioos:station:wmo:42047:1,2016-04-01T13:00:00Z,27.8966,-93.5973,-2.0,22.9,11111222 
TABS,ioos:station:wmo:42047:1,2016-04-01T13:30:00Z,27.8966,-93.5973,-2.0,22.9,11111222 
TABS,ioos:station:wmo:42047:1,2016-04-01T14:30:00Z,27.8966,-93.5973,-2.0,22.9,11111222 
TABS,ioos:station:wmo:42047:1,2016-04-01T15:00:00Z,27.8966,-93.5973,-2.0,22.9,11111222 
TABS,ioos:station:wmo:42047:1,2016-04-01T15:30:00Z,27.8966,-93.5973,-2.0,22.95,11111222 
TABS,ioos:station:wmo:42047:1,2016-04-01T16:00:00Z,27.8966,-93.5973,-2.0,22.99,11111222 
TABS,ioos:station:wmo:42047:1,2016-04-01T16:30:00Z,27.8966,-93.5973,-2.0,23.03,11111222 
TABS,ioos:station:wmo:42047:1,2016-04-01T17:00:00Z,27.8966,-93.5973,-2.0,23.06,11111222 
TABS,ioos:station:wmo:42047:1,2016-04-02T05:00:00Z,27.8966,-93.5973,-2.0,22.69,11111222 
TABS,ioos:station:wmo:42047:1,2016-04-02T05:30:00Z,27.8966,-93.5973,-2.0,22.71,11111222 
TABS,ioos:station:wmo:42047:1,2016-04-02T06:00:00Z,27.8966,-93.5973,-2.0,22.72,11111222 
TABS,ioos:station:wmo:42047:1,2016-04-02T08:00:00Z,27.8966,-93.5973,-2.0,22.8,2 
TABS,ioos:station:wmo:42047:1,2016-04-02T11:30:00Z,27.8966,-93.5973,-2.0,22.2,2 
TABS,ioos:station:wmo:42047:1,2016-04-02T15:30:00Z,27.8966,-93.5973,-2.0,22.2,2 
TABS,ioos:station:wmo:42047:1,2016-04-02T21:30:00Z,27.8966,-93.5973,-2.0,22.8,2 
TABS,ioos:station:wmo:42047:1,2016-04-04T00:00:00Z,27.8966,-93.5973,-2.0,23.02,11111222 
TABS,ioos:station:wmo:42047:1,2016-04-04T00:30:00Z,27.8966,-93.5973,-2.0,23.06,11111222 
TABS,ioos:station:wmo:42047:1,2016-04-04T01:00:00Z,27.8966,-93.5973,-2.0,23.0,11111222 
TABS,ioos:station:wmo:42047:1,2016-04-04T01:30:00Z,27.8966,-93.5973,-2.0,22.98,11111222 
TABS,ioos:station:wmo:42047:1,2016-04-04T02:00:00Z,27.8966,-93.5973,-2.0,22.96,11111222 
TABS,ioos:station:wmo:42047:1,2016-04-04T02:30:00Z,27.8966,-93.5973,-2.0,22.94,11111222 
TABS,ioos:station:wmo:42047:1,2016-04-04T03:00:00Z,27.8966,-93.5973,-2.0,22.92,11111222 
TABS,ioos:station:wmo:42047:1,2016-04-04T03:30:00Z,27.8966,-93.5973,-2.0,22.91,11111222 
TABS,ioos:station:wmo:42047:1,2016-04-04T04:00:00Z,27.8966,-93.5973,-2.0,22.91,11111222 
TABS,ioos:station:wmo:42047:1,2016-04-04T04:30:00Z,27.8966,-93.5973,-2.0,22.91,11111222 
TABS,ioos:station:wmo:42047:1,2016-04-04T05:00:00Z,27.8966,-93.5973,-2.0,22.9,11111222 
TABS,ioos:station:wmo:42047:1,2016-04-04T05:30:00Z,27.8966,-93.5973,-2.0,22.88,11111222 
TABS,ioos:station:wmo:42047:1,2016-04-04T06:00:00Z,27.8966,-93.5973,-2.0,22.88,11111222 
TABS,ioos:station:wmo:42047:1,2016-04-04T06:30:00Z,27.8966,-93.5973,-2.0,22.87,11111222 
TABS,ioos:station:wmo:42047:1,2016-04-04T07:00:00Z,27.8966,-93.5973,-2.0,22.86,11111222 
TABS,ioos:station:wmo:42047:1,2016-04-04T07:30:00Z,27.8966,-93.5973,-2.0,22.85,11111222 
TABS,ioos:station:wmo:42047:1,2016-04-04T08:00:00Z,27.8966,-93.5973,-2.0,22.83,11111222 
TABS,ioos:station:wmo:42047:1,2016-04-04T08:30:00Z,27.8966,-93.5973,-2.0,22.79,11111222 
TABS,ioos:station:wmo:42047:1,2016-04-04T09:00:00Z,27.8966,-93.5973,-2.0,22.76,11111222 
TABS,ioos:station:wmo:42047:1,2016-04-04T09:30:00Z,27.8966,-93.5973,-2.0,22.73,11111222 
TABS,ioos:station:wmo:42047:1,2016-04-04T10:00:00Z,27.8966,-93.5973,-2.0,22.65,11111222 
TABS,ioos:station:wmo:42047:1,2016-04-04T10:30:00Z,27.8966,-93.5973,-2.0,22.58,11111222 
TABS,ioos:station:wmo:42047:1,2016-04-04T11:00:00Z,27.8966,-93.5973,-2.0,22.52,11111222 
TABS,ioos:station:wmo:42047:1,2016-04-04T11:30:00Z,27.8966,-93.5973,-2.0,22.5,11111222 
TABS,ioos:station:wmo:42047:1,2016-04-04T12:00:00Z,27.8966,-93.5973,-2.0,22.5,11111222 
TABS,ioos:station:wmo:42047:1,2016-04-04T12:30:00Z,27.8966,-93.5973,-2.0,22.46,11111222 
TABS,ioos:station:wmo:42047:1,2016-04-04T13:00:00Z,27.8966,-93.5973,-2.0,22.46,11111222 
TABS,ioos:station:wmo:42047:1,2016-04-04T13:30:00Z,27.8966,-93.5973,-2.0,22.47,11111222 
TABS,ioos:station:wmo:42047:1,2016-04-04T14:00:00Z,27.8966,-93.5973,-2.0,22.45,11111222 
TABS,ioos:station:wmo:42047:1,2016-04-04T14:30:00Z,27.8966,-93.5973,-2.0,22.47,11111222 
TABS,ioos:station:wmo:42047:1,2016-04-04T15:00:00Z,27.8966,-93.5973,-2.0,22.5,11111222 
TABS,ioos:station:wmo:42047:1,2016-04-04T15:30:00Z,27.8966,-93.5973,-2.0,22.54,11111222 
TABS,ioos:station:wmo:42047:1,2016-04-04T16:00:00Z,27.8966,-93.5973,-2.0,22.57,11111222 
TABS,ioos:station:wmo:42047:1,2016-04-04T16:30:00Z,27.8966,-93.5973,-2.0,22.61,11111222 
TABS,ioos:station:wmo:42047:1,2016-04-04T17:00:00Z,27.8966,-93.5973,-2.0,22.61,11111222 
TABS,ioos:station:wmo:42047:1,2016-04-04T17:30:00Z,27.8966,-93.5973,-2.0,22.64,11111222 
TABS,ioos:station:wmo:42047:1,2016-04-04T18:00:00Z,27.8966,-93.5973,-2.0,22.75,11111222 
TABS,ioos:station:wmo:42047:1,2016-04-04T18:30:00Z,27.8966,-93.5973,-2.0,22.82,11111222 
TABS,ioos:station:wmo:42047:1,2016-04-04T19:00:00Z,27.8966,-93.5973,-2.0,22.86,11111222 
TABS,ioos:station:wmo:42047:1,2016-04-04T19:30:00Z,27.8966,-93.5973,-2.0,23.0,11111222 
TABS,ioos:station:wmo:42047:1,2016-04-04T20:00:00Z,27.8966,-93.5973,-2.0,23.27,11111222 
TABS,ioos:station:wmo:42047:1,2016-04-04T20:30:00Z,27.8966,-93.5973,-2.0,23.57,11111222 
TABS,ioos:station:wmo:42047:1,2016-04-04T21:00:00Z,27.8966,-93.5973,-2.0,23.75,11111222 
TABS,ioos:station:wmo:42047:1,2016-04-04T21:30:00Z,27.8966,-93.5973,-2.0,23.68,11111222 
TABS,ioos:station:wmo:42047:1,2016-04-04T22:00:00Z,27.8966,-93.5973,-2.0,23.7,11111222 
TABS,ioos:station:wmo:42047:1,2016-04-04T22:30:00Z,27.8966,-93.5973,-2.0,23.71,11111222 
TABS,ioos:station:wmo:42047:1,2016-04-04T23:00:00Z,27.8966,-93.5973,-2.0,23.63,11111222 
TABS,ioos:station:wmo:42047:1,2016-04-04T23:30:00Z,27.8966,-93.5973,-2.0,23.6,11111222 
TABS,ioos:station:wmo:42047:1,2016-04-05T00:00:00Z,27.8966,-93.5973,-2.0,23.54,11111222 
TABS,ioos:station:wmo:42047:1,2016-04-05T00:30:00Z,27.8966,-93.5973,-2.0,23.48,11111222 
TABS,ioos:station:wmo:42047:1,2016-04-05T01:00:00Z,27.8966,-93.5973,-2.0,23.41,11111222 
TABS,ioos:station:wmo:42047:1,2016-04-05T01:30:00Z,27.8966,-93.5973,-2.0,23.33,11111222 
TABS,ioos:station:wmo:42047:1,2016-04-05T02:00:00Z,27.8966,-93.5973,-2.0,23.26,11111222 
TABS,ioos:station:wmo:42047:1,2016-04-05T02:30:00Z,27.8966,-93.5973,-2.0,23.23,11111222 
TABS,ioos:station:wmo:42047:1,2016-04-05T03:00:00Z,27.8966,-93.5973,-2.0,23.18,11111222 
TABS,ioos:station:wmo:42047:1,2016-04-05T03:30:00Z,27.8966,-93.5973,-2.0,23.15,11111222 
TABS,ioos:station:wmo:42047:1,2016-04-05T04:00:00Z,27.8966,-93.5973,-2.0,23.14,11111222 
TABS,ioos:station:wmo:42047:1,2016-04-05T04:30:00Z,27.8966,-93.5973,-2.0,23.13,11111222 
TABS,ioos:station:wmo:42047:1,2016-04-05T05:00:00Z,27.8966,-93.5973,-2.0,23.1,11111222 
TABS,ioos:station:wmo:42047:1,2016-04-05T05:30:00Z,27.8966,-93.5973,-2.0,23.08,11111222 
TABS,ioos:station:wmo:42047:1,2016-04-05T06:00:00Z,27.8966,-93.5973,-2.0,23.05,11111222 
TABS,ioos:station:wmo:42047:1,2016-04-05T06:30:00Z,27.8966,-93.5973,-2.0,23.08,11111222 
TABS,ioos:station:wmo:42047:1,2016-04-05T07:00:00Z,27.8966,-93.5973,-2.0,23.03,11111222 
TABS,ioos:station:wmo:42047:1,2016-04-05T07:30:00Z,27.8966,-93.5973,-2.0,23.01,11111222 
TABS,ioos:station:wmo:42047:1,2016-04-05T08:00:00Z,27.8966,-93.5973,-2.0,24.01,11111222 
TABS,ioos:station:wmo:42047:1,2016-04-05T08:30:00Z,27.8966,-93.5973,-2.0,22.96,11111222 
TABS,ioos:station:wmo:42047:1,2016-04-05T09:00:00Z,27.8966,-93.5973,-2.0,22.99,11111222 
TABS,ioos:station:wmo:42047:1,2016-04-05T09:30:00Z,27.8966,-93.5973,-2.0,22.94,11111222 
TABS,ioos:station:wmo:42047:1,2016-04-05T10:00:00Z,27.8966,-93.5973,-2.0,22.96,11111222 
TABS,ioos:station:wmo:42047:1,2016-04-05T10:30:00Z,27.8966,-93.5973,-2.0,22.95,11111222 
TABS,ioos:station:wmo:42047:1,2016-04-05T11:00:00Z,27.8966,-93.5973,-2.0,22.94,11111222 
TABS,ioos:station:wmo:42047:1,2016-04-05T11:30:00Z,27.8966,-93.5973,-2.0,22.92,11111222 
TABS,ioos:station:wmo:42047:1,2016-04-05T12:00:00Z,27.8966,-93.5973,-2.0,22.96,11111222 
TABS,ioos:station:wmo:42047:1,2016-04-05T12:30:00Z,27.8966,-93.5973,-2.0,22.9,11111222 
TABS,ioos:station:wmo:42047:1,2016-04-05T13:00:00Z,27.8966,-93.5973,-2.0,22.91,11111222 
TABS,ioos:station:wmo:42047:1,2016-04-05T13:30:00Z,27.8966,-93.5973,-2.0,22.91,11111222 
TABS,ioos:station:wmo:42047:1,2016-04-05T14:00:00Z,27.8966,-93.5973,-2.0,22.93,11111222 
TABS,ioos:station:wmo:42047:1,2016-04-05T14:30:00Z,27.8966,-93.5973,-2.0,22.94,11111222 
TABS,ioos:station:wmo:42047:1,2016-04-05T15:00:00Z,27.8966,-93.5973,-2.0,22.96,11111222 
TABS,ioos:station:wmo:42047:1,2016-04-05T15:30:00Z,27.8966,-93.5973,-2.0,22.99,11111222 
TABS,ioos:station:wmo:42047:1,2016-04-05T16:00:00Z,27.8966,-93.5973,-2.0,23.01,11111222 
TABS,ioos:station:wmo:42047:1,2016-04-05T16:30:00Z,27.8966,-93.5973,-2.0,23.05,11111222 
TABS,ioos:station:wmo:42047:1,2016-04-05T17:00:00Z,27.8966,-93.5973,-2.0,23.12,11111222 
TABS,ioos:station:wmo:42047:1,2016-04-05T17:30:00Z,27.8966,-93.5973,-2.0,23.18,11111222 
TABS,ioos:station:wmo:42047:1,2016-04-05T18:00:00Z,27.8966,-93.5973,-2.0,23.25,11111222 
TABS,ioos:station:wmo:42047:1,2016-04-05T18:30:00Z,27.8966,-93.5973,-2.0,23.31,11111222 
TABS,ioos:station:wmo:42047:1,2016-04-05T19:00:00Z,27.8966,-93.5973,-2.0,23.41,11111222 
TABS,ioos:station:wmo:42047:1,2016-04-05T19:30:00Z,27.8966,-93.5973,-2.0,23.47,11111222 
TABS,ioos:station:wmo:42047:1,2016-04-05T20:00:00Z,27.8966,-93.5973,-2.0,23.54,11111222 
TABS,ioos:station:wmo:42047:1,2016-04-05T20:30:00Z,27.8966,-93.5973,-2.0,23.55,11111222 
TABS,ioos:station:wmo:42047:1,2016-04-05T21:00:00Z,27.8966,-93.5973,-2.0,23.59,11111222 
TABS,ioos:station:wmo:42047:1,2016-04-05T21:30:00Z,27.8966,-93.5973,-2.0,23.6,11111222 
TABS,ioos:station:wmo:42047:1,2016-04-05T22:00:00Z,27.8966,-93.5973,-2.0,23.57,11111222 
TABS,ioos:station:wmo:42047:1,2016-04-05T22:30:00Z,27.8966,-93.5973,-2.0,23.51,11111222 
TABS,ioos:station:wmo:42047:1,2016-04-05T23:00:00Z,27.8966,-93.5973,-2.0,23.52,11111222 
TABS,ioos:station:wmo:42047:1,2016-04-05T23:30:00Z,27.8966,-93.5973,-2.0,23.51,11111222 
TABS,ioos:station:wmo:42047:1,2016-04-06T00:00:00Z,27.8966,-93.5973,-2.0,23.52,11111222 
TABS,ioos:station:wmo:42047:1,2016-04-06T00:30:00Z,27.8966,-93.5973,-2.0,23.36,11111222 
TABS,ioos:station:wmo:42047:1,2016-04-06T01:00:00Z,27.8966,-93.5973,-2.0,23.22,11111222 
TABS,ioos:station:wmo:42047:1,2016-04-06T01:30:00Z,27.8966,-93.5973,-2.0,23.22,11111222 
TABS,ioos:station:wmo:42047:1,2016-04-06T02:00:00Z,27.8966,-93.5973,-2.0,23.14,11111222 
TABS,ioos:station:wmo:42047:1,2016-04-06T02:30:00Z,27.8966,-93.5973,-2.0,23.16,11111222 
TABS,ioos:station:wmo:42047:1,2016-04-06T03:00:00Z,27.8966,-93.5973,-2.0,23.12,11111222 
TABS,ioos:station:wmo:42047:1,2016-04-06T03:30:00Z,27.8966,-93.5973,-2.0,23.14,11111222 
TABS,ioos:station:wmo:42047:1,2016-04-06T04:00:00Z,27.8966,-93.5973,-2.0,23.09,11111222 
TABS,ioos:station:wmo:42047:1,2016-04-06T04:30:00Z,27.8966,-93.5973,-2.0,23.07,11111222 
TABS,ioos:station:wmo:42047:1,2016-04-06T05:00:00Z,27.8966,-93.5973,-2.0,23.0,11111222 
TABS,ioos:station:wmo:42047:1,2016-04-06T05:30:00Z,27.8966,-93.5973,-2.0,22.99,11111222 
TABS,ioos:station:wmo:42047:1,2016-04-06T06:00:00Z,27.8966,-93.5973,-2.0,23.0,11111222 
TABS,ioos:station:wmo:42047:1,2016-04-06T06:30:00Z,27.8966,-93.5973,-2.0,22.98,11111222 
TABS,ioos:station:wmo:42047:1,2016-04-06T07:00:00Z,27.8966,-93.5973,-2.0,22.99,11111222 
TABS,ioos:station:wmo:42047:1,2016-04-06T07:30:00Z,27.8966,-93.5973,-2.0,23.04,11111222 
TABS,ioos:station:wmo:42047:1,2016-04-06T08:00:00Z,27.8966,-93.5973,-2.0,22.97,11111222 
TABS,ioos:station:wmo:42047:1,2016-04-06T08:30:00Z,27.8966,-93.5973,-2.0,22.97,11111222 
TABS,ioos:station:wmo:42047:1,2016-04-06T09:00:00Z,27.8966,-93.5973,-2.0,22.96,11111222 
TABS,ioos:station:wmo:42047:1,2016-04-06T09:30:00Z,27.8966,-93.5973,-2.0,22.96,11111222 
TABS,ioos:station:wmo:42047:1,2016-04-06T10:00:00Z,27.8966,-93.5973,-2.0,22.96,11111222 
TABS,ioos:station:wmo:42047:1,2016-04-06T10:30:00Z,27.8966,-93.5973,-2.0,22.96,11111222 
TABS,ioos:station:wmo:42047:1,2016-04-06T11:00:00Z,27.8966,-93.5973,-2.0,22.95,11111222 
TABS,ioos:station:wmo:42047:1,2016-04-06T11:30:00Z,27.8966,-93.5973,-2.0,22.95,11111222 
TABS,ioos:station:wmo:42047:1,2016-04-06T12:00:00Z,27.8966,-93.5973,-2.0,22.94,11111222 
TABS,ioos:station:wmo:42047:1,2016-04-06T12:30:00Z,27.8966,-93.5973,-2.0,22.93,11111222 
TABS,ioos:station:wmo:42047:1,2016-04-06T13:00:00Z,27.8966,-93.5973,-2.0,22.94,11111222 
TABS,ioos:station:wmo:42047:1,2016-04-06T13:30:00Z,27.8966,-93.5973,-2.0,22.95,11111222 
TABS,ioos:station:wmo:42047:1,2016-04-06T14:00:00Z,27.8966,-93.5973,-2.0,22.95,11111222 
TABS,ioos:station:wmo:42047:1,2016-04-06T14:30:00Z,27.8966,-93.5973,-2.0,22.96,11111222 
TABS,ioos:station:wmo:42047:1,2016-04-06T15:00:00Z,27.8966,-93.5973,-2.0,22.98,11111222 
TABS,ioos:station:wmo:42047:1,2016-04-06T15:30:00Z,27.8966,-93.5973,-2.0,23.05,11111222 
TABS,ioos:station:wmo:42047:1,2016-04-06T16:00:00Z,27.8966,-93.5973,-2.0,22.99,11111222 
TABS,ioos:station:wmo:42047:1,2016-04-06T16:30:00Z,27.8966,-93.5973,-2.0,23.02,11111222 
TABS,ioos:station:wmo:42047:1,2016-04-06T17:00:00Z,27.8966,-93.5973,-2.0,23.08,11111222 
TABS,ioos:station:wmo:42047:1,2016-04-06T17:30:00Z,27.8966,-93.5973,-2.0,23.1,11111222 
TABS,ioos:station:wmo:42047:1,2016-04-06T18:00:00Z,27.8966,-93.5973,-2.0,23.12,11111222 
TABS,ioos:station:wmo:42047:1,2016-04-06T18:30:00Z,27.8966,-93.5973,-2.0,23.15,11111222 
TABS,ioos:station:wmo:42047:1,2016-04-06T19:00:00Z,27.8966,-93.5973,-2.0,23.24,11111222 
TABS,ioos:station:wmo:42047:1,2016-04-06T19:30:00Z,27.8966,-93.5973,-2.0,23.26,11111222 
TABS,ioos:station:wmo:42047:1,2016-04-06T20:00:00Z,27.8966,-93.5973,-2.0,23.33,11111222 
TABS,ioos:station:wmo:42047:1,2016-04-06T20:30:00Z,27.8966,-93.5973,-2.0,23.34,11111222 
TABS,ioos:station:wmo:42047:1,2016-04-06T21:00:00Z,27.8966,-93.5973,-2.0,23.38,11111222 
TABS,ioos:station:wmo:42047:1,2016-04-06T21:30:00Z,27.8966,-93.5973,-2.0,23.39,11111222 
TABS,ioos:station:wmo:42047:1,2016-04-06T22:00:00Z,27.8966,-93.5973,-2.0,23.3,11111222 
TABS,ioos:station:wmo:42047:1,2016-04-06T22:30:00Z,27.8966,-93.5973,-2.0,23.23,11111222 
TABS,ioos:station:wmo:42047:1,2016-04-06T23:00:00Z,27.8966,-93.5973,-2.0,23.19,11111222 
TABS,ioos:station:wmo:42047:1,2016-04-06T23:30:00Z,27.8966,-93.5973,-2.0,23.16,11111222 
TABS,ioos:station:wmo:42047:1,2016-04-07T00:00:00Z,27.8966,-93.5973,-2.0,23.21,11111222 
TABS,ioos:station:wmo:42047:1,2016-04-07T00:30:00Z,27.8966,-93.5973,-2.0,23.11,11111222 
TABS,ioos:station:wmo:42047:1,2016-04-07T01:00:00Z,27.8966,-93.5973,-2.0,23.11,11111222 
TABS,ioos:station:wmo:42047:1,2016-04-07T01:30:00Z,27.8966,-93.5973,-2.0,23.1,11111222 
TABS,ioos:station:wmo:42047:1,2016-04-07T02:00:00Z,27.8966,-93.5973,-2.0,23.07,11111222 
TABS,ioos:station:wmo:42047:1,2016-04-07T02:30:00Z,27.8966,-93.5973,-2.0,23.06,11111222 
TABS,ioos:station:wmo:42047:1,2016-04-07T03:00:00Z,27.8966,-93.5973,-2.0,23.04,11111222 
TABS,ioos:station:wmo:42047:1,2016-04-07T03:30:00Z,27.8966,-93.5973,-2.0,23.02,11111222 
TABS,ioos:station:wmo:42047:1,2016-04-07T04:00:00Z,27.8966,-93.5973,-2.0,23.01,11111222 
TABS,ioos:station:wmo:42047:1,2016-04-07T04:30:00Z,27.8966,-93.5973,-2.0,23.0,11111222 
TABS,ioos:station:wmo:42047:1,2016-04-07T05:00:00Z,27.8966,-93.5973,-2.0,23.03,11111222 
TABS,ioos:station:wmo:42047:1,2016-04-07T05:30:00Z,27.8966,-93.5973,-2.0,23.02,11111222 
TABS,ioos:station:wmo:42047:1,2016-04-07T06:00:00Z,27.8966,-93.5973,-2.0,23.03,11111222 
TABS,ioos:station:wmo:42047:1,2016-04-07T06:30:00Z,27.8966,-93.5973,-2.0,22.98,11111222 
TABS,ioos:station:wmo:42047:1,2016-04-07T07:00:00Z,27.8966,-93.5973,-2.0,22.97,11111222 
TABS,ioos:station:wmo:42047:1,2016-04-07T07:30:00Z,27.8966,-93.5973,-2.0,22.99,11111222 
TABS,ioos:station:wmo:42047:1,2016-04-07T08:00:00Z,27.8966,-93.5973,-2.0,22.96,11111222 
TABS,ioos:station:wmo:42047:1,2016-04-07T08:30:00Z,27.8966,-93.5973,-2.0,22.96,11111222 
TABS,ioos:station:wmo:42047:1,2016-04-07T09:00:00Z,27.8966,-93.5973,-2.0,22.97,11111222 
TABS,ioos:station:wmo:42047:1,2016-04-07T09:30:00Z,27.8966,-93.5973,-2.0,22.93,11111222 
TABS,ioos:station:wmo:42047:1,2016-04-07T10:00:00Z,27.8966,-93.5973,-2.0,22.91,11111222 
TABS,ioos:station:wmo:42047:1,2016-04-07T10:30:00Z,27.8966,-93.5973,-2.0,22.92,11111222 
TABS,ioos:station:wmo:42047:1,2016-04-07T11:00:00Z,27.8966,-93.5973,-2.0,22.9,11111222 
TABS,ioos:station:wmo:42047:1,2016-04-07T11:30:00Z,27.8966,-93.5973,-2.0,22.89,11111222 
TABS,ioos:station:wmo:42047:1,2016-04-07T12:00:00Z,27.8966,-93.5973,-2.0,22.9,11111222 
TABS,ioos:station:wmo:42047:1,2016-04-07T12:30:00Z,27.8966,-93.5973,-2.0,22.92,11111222 
TABS,ioos:station:wmo:42047:1,2016-04-07T13:00:00Z,27.8966,-93.5973,-2.0,22.87,11111222 
TABS,ioos:station:wmo:42047:1,2016-04-07T13:30:00Z,27.8966,-93.5973,-2.0,22.89,11111222 
TABS,ioos:station:wmo:42047:1,2016-04-07T14:00:00Z,27.8966,-93.5973,-2.0,22.92,11111222 
TABS,ioos:station:wmo:42047:1,2016-04-07T14:30:00Z,27.8966,-93.5973,-2.0,22.91,11111222 
TABS,ioos:station:wmo:42047:1,2016-04-07T15:00:00Z,27.8966,-93.5973,-2.0,22.95,11111222 
TABS,ioos:station:wmo:42047:1,2016-04-07T15:30:00Z,27.8966,-93.5973,-2.0,22.95,11111222 
TABS,ioos:station:wmo:42047:1,2016-04-07T16:00:00Z,27.8966,-93.5973,-2.0,22.97,11111222 
TABS,ioos:station:wmo:42047:1,2016-04-07T16:30:00Z,27.8966,-93.5973,-2.0,23.1,11111222 
TABS,ioos:station:wmo:42047:1,2016-04-07T17:00:00Z,27.8966,-93.5973,-2.0,23.18,11111222 
TABS,ioos:station:wmo:42047:1,2016-04-07T17:30:00Z,27.8966,-93.5973,-2.0,23.32,11111222 
TABS,ioos:station:wmo:42047:1,2016-04-07T18:00:00Z,27.8966,-93.5973,-2.0,23.21,11111222 
TABS,ioos:station:wmo:42047:1,2016-04-07T18:30:00Z,27.8966,-93.5973,-2.0,23.27,11111222 
TABS,ioos:station:wmo:42047:1,2016-04-07T19:00:00Z,27.8966,-93.5973,-2.0,23.38,11111222 
TABS,ioos:station:wmo:42047:1,2016-04-07T19:30:00Z,27.8966,-93.5973,-2.0,23.49,11111222 
TABS,ioos:station:wmo:42047:1,2016-04-07T20:00:00Z,27.8966,-93.5973,-2.0,23.62,11111222 
TABS,ioos:station:wmo:42047:1,2016-04-07T20:30:00Z,27.8966,-93.5973,-2.0,23.63,11111222 
TABS,ioos:station:wmo:42047:1,2016-04-07T21:00:00Z,27.8966,-93.5973,-2.0,23.66,11111222 
TABS,ioos:station:wmo:42047:1,2016-04-07T21:30:00Z,27.8966,-93.5973,-2.0,23.94,11111222 
TABS,ioos:station:wmo:42047:1,2016-04-07T22:00:00Z,27.8966,-93.5973,-2.0,23.94,11111222 
TABS,ioos:station:wmo:42047:1,2016-04-07T22:30:00Z,27.8966,-93.5973,-2.0,23.83,11111222 
TABS,ioos:station:wmo:42047:1,2016-04-07T23:00:00Z,27.8966,-93.5973,-2.0,24.03,11111222 
TABS,ioos:station:wmo:42047:1,2016-04-07T23:30:00Z,27.8966,-93.5973,-2.0,24.17,11111222 
TABS,ioos:station:wmo:42047:1,2016-04-08T00:00:00Z,27.8966,-93.5973,-2.0,24.09,11111222 
TABS,ioos:station:wmo:42047:1,2016-04-08T00:30:00Z,27.8966,-93.5973,-2.0,23.95,11111222 
TABS,ioos:station:wmo:42047:1,2016-04-08T01:00:00Z,27.8966,-93.5973,-2.0,23.9,11111222 
TABS,ioos:station:wmo:42047:1,2016-04-08T01:30:00Z,27.8966,-93.5973,-2.0,23.77,11111222 
TABS,ioos:station:wmo:42047:1,2016-04-08T02:00:00Z,27.8966,-93.5973,-2.0,23.71,11111222 
TABS,ioos:station:wmo:42047:1,2016-04-08T02:30:00Z,27.8966,-93.5973,-2.0,23.77,11111222 
TABS,ioos:station:wmo:42047:1,2016-04-08T03:00:00Z,27.8966,-93.5973,-2.0,23.63,11111222 
TABS,ioos:station:wmo:42047:1,2016-04-08T03:30:00Z,27.8966,-93.5973,-2.0,23.6,11111222 
TABS,ioos:station:wmo:42047:1,2016-04-08T04:00:00Z,27.8966,-93.5973,-2.0,23.38,11111222 
TABS,ioos:station:wmo:42047:1,2016-04-08T04:30:00Z,27.8966,-93.5973,-2.0,23.31,11111222 
TABS,ioos:station:wmo:42047:1,2016-04-08T05:00:00Z,27.8966,-93.5973,-2.0,23.17,11111222 
TABS,ioos:station:wmo:42047:1,2016-04-08T05:30:00Z,27.8966,-93.5973,-2.0,23.11,11111222 
TABS,ioos:station:wmo:42047:1,2016-04-08T06:00:00Z,27.8966,-93.5973,-2.0,23.13,11111222 
TABS,ioos:station:wmo:42047:1,2016-04-08T06:30:00Z,27.8966,-93.5973,-2.0,22.96,11111222 
TABS,ioos:station:wmo:42047:1,2016-04-08T07:00:00Z,27.8966,-93.5973,-2.0,23.03,11111222 
TABS,ioos:station:wmo:42047:1,2016-04-08T07:30:00Z,27.8966,-93.5973,-2.0,23.04,11111222 
TABS,ioos:station:wmo:42047:1,2016-04-08T08:00:00Z,27.8966,-93.5973,-2.0,23.01,11111222 
TABS,ioos:station:wmo:42047:1,2016-04-08T08:30:00Z,27.8966,-93.5973,-2.0,23.01,11111222 
TABS,ioos:station:wmo:42047:1,2016-04-08T09:00:00Z,27.8966,-93.5973,-2.0,22.98,11111222 
TABS,ioos:station:wmo:42047:1,2016-04-08T09:30:00Z,27.8966,-93.5973,-2.0,22.92,11111222 
TABS,ioos:station:wmo:42047:1,2016-04-08T10:00:00Z,27.8966,-93.5973,-2.0,22.86,11111222 
TABS,ioos:station:wmo:42047:1,2016-04-08T10:30:00Z,27.8966,-93.5973,-2.0,22.84,11111222 
TABS,ioos:station:wmo:42047:1,2016-04-08T11:00:00Z,27.8966,-93.5973,-2.0,22.81,11111222 
TABS,ioos:station:wmo:42047:1,2016-04-08T11:30:00Z,27.8966,-93.5973,-2.0,22.8,11111222 
TABS,ioos:station:wmo:42047:1,2016-04-08T12:00:00Z,27.8966,-93.5973,-2.0,22.79,11111222 
TABS,ioos:station:wmo:42047:1,2016-04-08T12:30:00Z,27.8966,-93.5973,-2.0,22.78,11111222 
TABS,ioos:station:wmo:42047:1,2016-04-08T13:00:00Z,27.8966,-93.5973,-2.0,22.78,11111222 
TABS,ioos:station:wmo:42047:1,2016-04-08T13:30:00Z,27.8966,-93.5973,-2.0,22.82,11111222 
TABS,ioos:station:wmo:42047:1,2016-04-08T14:00:00Z,27.8966,-93.5973,-2.0,22.86,11111222 
TABS,ioos:station:wmo:42047:1,2016-04-08T14:30:00Z,27.8966,-93.5973,-2.0,22.84,11111222 
TABS,ioos:station:wmo:42047:1,2016-04-08T15:00:00Z,27.8966,-93.5973,-2.0,22.84,11111222 
TABS,ioos:station:wmo:42047:1,2016-04-08T15:30:00Z,27.8966,-93.5973,-2.0,22.84,11111222 
TABS,ioos:station:wmo:42047:1,2016-04-08T16:00:00Z,27.8966,-93.5973,-2.0,22.86,11111222 
TABS,ioos:station:wmo:42047:1,2016-04-08T16:30:00Z,27.8966,-93.5973,-2.0,22.89,11111222 
TABS,ioos:station:wmo:42047:1,2016-04-08T17:00:00Z,27.8966,-93.5973,-2.0,22.91,11111222 
TABS,ioos:station:wmo:42047:1,2016-04-08T17:30:00Z,27.8966,-93.5973,-2.0,22.92,11111222 